Regional Weather Roundup
Issued by NWS Northern Indiana

Home | Current Version | Previous Version | Graphics & Text | Print | Product List | Glossary On
Versions: 1 2 3 4 5 6 7 8 9 10 11 12 13 14 15 16 17 18 19 20 21 22 23 24 25 26 27 28 29 30 31 32 33 34 35 36 37 38 39 40 41 42 43 44 45 46 47 48 49 50
000
ASUS43 KIWX 201500
RWRIWX

KIWX WEATHER ROUNDUP
NATIONAL WEATHER SERVICE NORTHERN INDIANA
1100 AM EDT WED SEP 20 2017

NOTE: "FAIR" INDICATES FEW OR NO CLOUDS BELOW 12,000 FEET WITH NO
SIGNIFICANT WEATHER AND/OR OBSTRUCTIONS TO VISIBILITY.

* THESE STATIONS ARE NOT UNDER NWS QUALITY CONTROL. THEY ALSO MAY NOT
  REPORT WEATHER SUCH AS PRECIPITATION OR FOG.

INZ001>027-201600-
NORTHERN INDIANA

CITY           SKY/WX    TMP DP  RH WIND       PRES   REMARKS
GARY*          MOSUNNY   77  68  73 SE14      29.93F
MICHIGAN CITY* SUNNY     73  70  88 SE6       29.96F
SOUTH BEND     MOSUNNY   71  68  90 SE8       29.99S
ELKHART*       MOSUNNY   72  66  83 SE8       29.99F
GOSHEN         FOG       68  65  90 SE6       30.00S VSB 3/4
FORT WAYNE     PTSUNNY   75  69  81 SW6       30.02S
PERU/GRISSOM   SUNNY     77  72  85 S6        29.99S

$$
INZ028>050-201600-
CENTRAL INDIANA

CITY           SKY/WX    TMP DP  RH WIND       PRES   REMARKS
LAFAYETTE      SUNNY     78  72  81 VRB5      29.97S
KOKOMO*        SUNNY     76  71  85 S8        30.01F
MUNCIE*        PTSUNNY   78  69  73 SW3       30.03S
INDIANAPOLIS   MOSUNNY   72  69  90 S5        30.01S FOG

$$
MIZ043>046-050>051-056>058-064>065-071>073-077>080-201600-
SOUTHWEST LOWER MICHIGAN

CITY           SKY/WX    TMP DP  RH WIND       PRES   REMARKS
BATTLE CREEK   CLOUDY    71  66  84 S7        30.01S
BENTON HARBOR  SUNNY     73  66  78 SE9       29.96F
COLDWATER*     MOSUNNY   73  69  87 CALM      30.01F
HILLSDALE*     CLOUDY    73  64  73 S3        30.02S
HOLLAND        SUNNY     75  64  68 S9        29.97F
GRAND RAPIDS   PTSUNNY   74  64  71 SE9       29.98F
KALAMAZOO      CLOUDY    70  64  81 SE5       30.00F
STURGIS*       PTSUNNY   71  67  88 S6        30.00F
THREE RIVERS*  CLOUDY    70  67  90 S5        30.01S

$$
OHZ001>008-015>018-024>025-201600-
NORTHWEST OHIO

CITY           SKY/WX    TMP DP  RH WIND       PRES   REMARKS
DEFIANCE       CLOUDY    68  66  93 SE5       30.02S FOG
FINDLAY        SUNNY     77  68  73 S5        30.02S
TOLEDO EXPRESS CLOUDY    67 N/A N/A CALM      30.01F FOG
TOLEDO METCALF MOSUNNY   74  68  81 SE3       30.02F
LIMA           SUNNY     74  70  87 S5        30.04S

$$
AND FOR LAKE MICHIGAN COASTAL AND OPEN LAKE BUOY OBSERVATIONS

STATION/POSITION TEMP    WIND        PRES    VSBY  WAVE
                 AIR SEA DIR/SP/G                  HT/PER
                 (F)     (DEG/KT/KT) (MB)    (MI)  (FT/S)
CALUMET HARBOR    74     140/  7/ 11 1012.6F
MICHIGAN CITY     72     130/ 11/ 14   N/A
BURNS HARBOR      74     150/  6/ 13 1014.2F
SAINT JOSEPH      66      70/  2/  5 1015.6
SOUTH LAKE BUOY   66 68  100/ 14/ 16 1013.7          1/ 3
4 MI NW BRIDGMAN  70 69  160/  8/ 10 1014.2F         1
MICHIGAN CITY     71 69  160/ 10/ 12   N/A           1

$$
&&




USA.gov is the U.S. government's official web portal to all federal, state and local government web resources and services.